Weather History for Valparaiso, IN

Change the Weather History Date:

Saturday, April 27, 2013

  Actual Average Record
Temperature  
Mean Temperature 54 °F 53 °F  
Max Temperature 70 °F 64 °F 76 °F (2009)
Min Temperature 37 °F 42 °F 28 °F (2012)
Degree Days  
Heating Degree Days 11 12  
Month to date heating degree days 508 447  
Since 1 July heating degree days 5877 6024  
Cooling Degree Days 0 0  
Month to date cooling degree days 0 0  
Year to date cooling degree days 0 0  
Growing Degree Days 2 (Base 50)    
Moisture  
Dew Point 40 °F    
Average Humidity 68    
Maximum Humidity 100    
Minimum Humidity 30    
Precipitation  
Precipitation 0.01 in 0.14 in 1.13 in (1999)
Month to date precipitation 6.12 3.05  
Year to date precipitation 10.21 8.70  
Sea Level Pressure  
Sea Level Pressure 30.21 in    
Wind  
Wind Speed 6 mph (ESE)    
Max Wind Speed 17 mph    
Max Gust Speed 24 mph    
Visibility 8 miles    
Events Fog , Rain    
T = Trace of Precipitation, MM = Missing Value Source: NWS Daily Summary

Daily Weather History Graph

Daily Weather History Graph

Search for Another Location

Airport:

Trip Planner

Search our weather history database for the weather conditions in past years. The results will help you decide how hot, cold, wet, or windy it might be!

Date:

Astronomy

Apr. 27, 2013 Rise Set
Actual Time 5:50 AM CDT 7:41 PM CDT
Civil Twilight 5:20 AM CDT 8:11 PM CDT
Nautical Twilight 4:44 AM CDT 8:47 PM CDT
Astronomical Twilight 4:05 AM CDT 9:27 PM CDT
Moon 10:11 PM CDT (4/27) 7:07 AM CDT (4/27)
Length of Visible Light 14h 51m
Length of Day
13h 51m
Waning Gibbous, 95% of the Moon is Illuminated
Apr 27
Waning Gibbous
May 2
Last Quarter
May 9
New
May 17
First Quarter
May 24
Full

Hourly Weather History & Observations

Time (CDT) Temp. Windchill Dew Point Humidity Pressure Visibility Wind Dir Wind Speed Gust Speed Precip Events Conditions
12:53 AM 50.0 °F - 41.0 °F 71% 30.33 in 10.0 mi South 3.5 mph - N/A   Clear
1:53 AM 46.0 °F - 39.9 °F 79% 30.32 in 10.0 mi Calm Calm - N/A   Clear
2:53 AM 43.0 °F - 39.9 °F 89% 30.30 in 10.0 mi Calm Calm - N/A   Clear
3:53 AM 41.0 °F - 39.0 °F 93% 30.30 in 8.0 mi Calm Calm - N/A   Clear
4:53 AM 39.9 °F - 39.0 °F 97% 30.30 in 6.0 mi Calm Calm - N/A   Clear
5:48 AM 39.2 °F 37.0 °F 37.4 °F 93% 30.29 in 2.0 mi ENE 3.5 mph - N/A   Clear
5:53 AM 39.0 °F 36.8 °F 37.9 °F 96% 30.30 in 1.8 mi ENE 3.5 mph - N/A   Clear
6:06 AM 37.4 °F 34.9 °F 37.4 °F 100% 30.28 in 0.5 mi NE 3.5 mph - N/A Fog Fog
6:28 AM 37.4 °F 33.8 °F 37.4 °F 100% 30.28 in 1.8 mi ENE 4.6 mph - N/A   Clear
6:35 AM 37.4 °F 34.9 °F 37.4 °F 100% 30.28 in 2.5 mi ENE 3.5 mph - N/A   Clear
6:44 AM 39.2 °F 37.0 °F 37.4 °F 93% 30.28 in 3.0 mi ENE 3.5 mph - N/A   Clear
6:53 AM 41.0 °F - 39.0 °F 93% 30.29 in 3.0 mi Calm Calm - N/A   Clear
7:53 AM 50.0 °F - 42.1 °F 74% 30.30 in 10.0 mi Calm Calm - N/A   Clear
8:53 AM 55.0 °F - 45.0 °F 69% 30.29 in 10.0 mi East 4.6 mph - N/A   Clear
9:53 AM 59.0 °F - 45.0 °F 60% 30.25 in 10.0 mi East 9.2 mph - N/A   Clear
10:53 AM 62.1 °F - 44.1 °F 52% 30.24 in 10.0 mi SE 9.2 mph - N/A   Clear
11:53 AM 64.9 °F - 37.0 °F 36% 30.23 in 10.0 mi ESE 11.5 mph 18.4 mph N/A   Clear
12:53 PM 66.0 °F - 36.0 °F 33% 30.21 in 10.0 mi SE 9.2 mph 20.7 mph N/A   Clear
1:53 PM 66.9 °F - 34.0 °F 30% 30.18 in 10.0 mi South 12.7 mph 19.6 mph N/A   Clear
2:53 PM 66.9 °F - 36.0 °F 32% 30.15 in 10.0 mi South 9.2 mph 18.4 mph N/A   Scattered Clouds
3:53 PM 68.0 °F - 36.0 °F 31% 30.12 in 10.0 mi SSE 15.0 mph 19.6 mph N/A   Overcast
4:53 PM 68.0 °F - 39.0 °F 35% 30.10 in 10.0 mi SSE 15.0 mph 20.7 mph N/A   Mostly Cloudy
5:53 PM 66.0 °F - 39.9 °F 38% 30.10 in 10.0 mi South 10.4 mph 17.3 mph N/A   Overcast
6:53 PM 64.0 °F - 41.0 °F 43% 30.08 in 10.0 mi South 8.1 mph - N/A   Overcast
7:53 PM 61.0 °F - 44.1 °F 54% 30.08 in 10.0 mi South 8.1 mph - N/A   Overcast
8:53 PM 59.0 °F - 46.0 °F 62% 30.07 in 10.0 mi SSE 4.6 mph - N/A   Overcast
9:53 PM 57.9 °F - 46.9 °F 67% 30.06 in 10.0 mi SSE 3.5 mph - N/A   Overcast
10:53 PM 55.9 °F - 48.0 °F 75% 30.04 in 10.0 mi East 3.5 mph - N/A   Overcast
11:53 PM 55.9 °F - 50.0 °F 80% 30.02 in 10.0 mi Variable 3.5 mph - 0.00 in Rain Light Rain